Time,TemperatureF,DewpointF,PressureIn,WindDirection,WindDirectionDegrees,WindSpeedMPH,WindSpeedGustMPH,Humidity,HourlyPrecipIn,Conditions,Clouds,dailyrainin,SoftwareType,DateUTC
2013-05-10 00:03:00,61.0,-99.9,-100.00,SSW,206,2.0,-999.0,-999,0.00,,,0.53,,2013-05-10 05:03:00,
2013-05-10 00:12:00,61.0,-99.9,-100.00,SSW,206,2.0,-999.0,-999,0.00,,,0.53,,2013-05-10 05:12:00,
2013-05-10 00:22:00,61.0,-99.9,-100.00,SSW,206,2.0,-999.0,-999,0.00,,,0.53,,2013-05-10 05:22:00,
2013-05-10 00:32:00,61.0,-99.9,-100.00,SSW,207,2.0,-999.0,-999,0.00,,,0.53,,2013-05-10 05:32:00,
2013-05-10 00:42:00,61.0,-99.9,-100.00,SSW,207,2.0,-999.0,-999,0.00,,,0.53,,2013-05-10 05:42:00,
2013-05-10 00:52:00,61.0,-99.9,-100.00,SSW,207,2.0,-999.0,-999,0.00,,,0.53,,2013-05-10 05:52:00,
2013-05-10 01:02:00,61.0,-99.9,-100.00,SW,224,2.0,-999.0,-999,0.00,,,0.53,,2013-05-10 06:02:00,
2013-05-10 01:12:00,61.0,-99.9,-100.00,SW,224,2.0,-999.0,-999,0.00,,,0.53,,2013-05-10 06:12:00,
2013-05-10 01:22:00,61.0,-99.9,-100.00,SW,224,2.0,-999.0,-999,0.00,,,0.53,,2013-05-10 06:22:00,
2013-05-10 01:30:00,60.0,-99.9,-100.00,WSW,238,3.0,-999.0,-999,0.00,,,0.53,,2013-05-10 06:30:00,
2013-05-10 01:32:00,61.0,-99.9,-100.00,WSW,241,4.0,-999.0,-999,0.00,,,0.53,,2013-05-10 06:32:00,
2013-05-10 01:42:00,61.0,-99.9,-100.00,WSW,241,4.0,-999.0,-999,0.00,,,0.53,,2013-05-10 06:42:00,
2013-05-10 01:52:00,61.0,-99.9,-100.00,WSW,241,4.0,-999.0,-999,0.00,,,0.53,,2013-05-10 06:52:00,
2013-05-10 02:02:00,60.0,-99.9,-100.00,WSW,238,3.0,-999.0,-999,0.00,,,0.53,,2013-05-10 07:02:00,
2013-05-10 02:12:00,60.0,-99.9,-100.00,WSW,238,3.0,-999.0,-999,0.00,,,0.53,,2013-05-10 07:12:00,
2013-05-10 02:22:00,60.0,-99.9,-100.00,WSW,238,3.0,-999.0,-999,0.00,,,0.53,,2013-05-10 07:22:00,
2013-05-10 02:30:00,60.0,-99.9,-100.00,WNW,301,1.0,-999.0,-999,0.00,,,0.53,,2013-05-10 07:30:00,
2013-05-10 03:02:00,60.0,-99.9,-100.00,WNW,301,1.0,-999.0,-999,0.00,,,0.53,,2013-05-10 08:02:00,
2013-05-10 03:12:00,60.0,-99.9,-100.00,WNW,301,1.0,-999.0,-999,0.00,,,0.53,,2013-05-10 08:12:00,
2013-05-10 03:22:00,60.0,-99.9,-100.00,WNW,301,1.0,-999.0,-999,0.00,,,0.53,,2013-05-10 08:22:00,
2013-05-10 04:02:00,61.0,-99.9,-100.00,West,266,2.0,-999.0,-999,0.00,,,0.53,,2013-05-10 09:02:00,
2013-05-10 04:11:00,61.0,-99.9,-100.00,West,266,2.0,-999.0,-999,0.00,,,0.53,,2013-05-10 09:11:00,
2013-05-10 04:22:00,61.0,-99.9,-100.00,West,266,2.0,-999.0,-999,0.00,,,0.53,,2013-05-10 09:22:00,
2013-05-10 04:33:00,60.0,-99.9,-100.00,West,269,1.0,-999.0,-999,0.00,,,0.51,,2013-05-10 09:33:00,
2013-05-10 04:43:00,60.0,-99.9,-100.00,West,269,1.0,-999.0,-999,0.00,,,0.51,,2013-05-10 09:43:00,
2013-05-10 04:53:00,60.0,-99.9,-100.00,West,269,1.0,-999.0,-999,0.00,,,0.51,,2013-05-10 09:53:00,
2013-05-10 05:03:00,60.0,-99.9,-100.00,WNW,296,4.0,-999.0,-999,0.00,,,0.46,,2013-05-10 10:03:00,
2013-05-10 05:12:00,60.0,-99.9,-100.00,WNW,296,4.0,-999.0,-999,0.00,,,0.46,,2013-05-10 10:12:00,
2013-05-10 05:23:00,60.0,-99.9,-100.00,WNW,296,4.0,-999.0,-999,0.00,,,0.46,,2013-05-10 10:23:00,
2013-05-10 05:33:00,60.0,-99.9,-100.00,West,281,2.0,-999.0,-999,0.00,,,0.42,,2013-05-10 10:33:00,
2013-05-10 05:42:00,60.0,-99.9,-100.00,West,281,2.0,-999.0,-999,0.00,,,0.42,,2013-05-10 10:42:00,
2013-05-10 05:53:00,60.0,-99.9,-100.00,West,281,2.0,-999.0,-999,0.00,,,0.42,,2013-05-10 10:53:00,
2013-05-10 06:02:00,59.0,-99.9,-100.00,WNW,295,4.0,-999.0,-999,0.00,,,0.34,,2013-05-10 11:02:00,
2013-05-10 06:12:00,59.0,-99.9,-100.00,WNW,295,4.0,-999.0,-999,0.00,,,0.34,,2013-05-10 11:12:00,
2013-05-10 06:22:00,59.0,-99.9,-100.00,WNW,295,4.0,-999.0,-999,0.00,,,0.34,,2013-05-10 11:22:00,
2013-05-10 06:32:00,59.0,-99.9,-100.00,WSW,254,3.0,-999.0,-999,0.00,,,0.31,,2013-05-10 11:32:00,
2013-05-10 06:42:00,59.0,-99.9,-100.00,WSW,254,3.0,-999.0,-999,0.00,,,0.31,,2013-05-10 11:42:00,
2013-05-10 06:52:00,59.0,-99.9,-100.00,WSW,254,3.0,-999.0,-999,0.00,,,0.31,,2013-05-10 11:52:00,
2013-05-10 07:02:00,58.0,-99.9,-100.00,West,272,3.0,-999.0,-999,0.00,,,0.31,,2013-05-10 12:02:00,
2013-05-10 07:12:00,58.0,-99.9,-100.00,West,272,3.0,-999.0,-999,0.00,,,0.31,,2013-05-10 12:12:00,
2013-05-10 07:22:00,58.0,-99.9,-100.00,West,272,3.0,-999.0,-999,0.00,,,0.31,,2013-05-10 12:22:00,
2013-05-10 07:30:00,58.0,-99.9,-100.00,NW,304,8.0,-999.0,-999,0.00,,,0.31,,2013-05-10 12:30:00,
2013-05-10 07:32:00,58.0,-99.9,-100.00,WNW,302,4.0,-999.0,-999,0.00,,,0.31,,2013-05-10 12:32:00,
2013-05-10 07:42:00,58.0,-99.9,-100.00,WNW,302,4.0,-999.0,-999,0.00,,,0.31,,2013-05-10 12:42:00,
2013-05-10 07:52:00,58.0,-99.9,-100.00,WNW,302,4.0,-999.0,-999,0.00,,,0.31,,2013-05-10 12:52:00,
2013-05-10 08:01:00,58.0,-99.9,-100.00,NW,304,8.0,-999.0,-999,0.00,,,0.31,,2013-05-10 13:01:00,
2013-05-10 08:11:00,58.0,-99.9,-100.00,NW,304,8.0,-999.0,-999,0.00,,,0.31,,2013-05-10 13:11:00,
2013-05-10 08:21:00,58.0,-99.9,-100.00,NW,304,8.0,-999.0,-999,0.00,,,0.31,,2013-05-10 13:21:00,
2013-05-10 09:02:00,57.0,-99.9,-100.00,NNW,333,12.0,-999.0,-999,0.00,,,0.31,,2013-05-10 14:02:00,
2013-05-10 09:11:00,57.0,-99.9,-100.00,NNW,333,12.0,-999.0,-999,0.00,,,0.31,,2013-05-10 14:11:00,
2013-05-10 09:22:00,57.0,-99.9,-100.00,NNW,333,12.0,-999.0,-999,0.00,,,0.31,,2013-05-10 14:22:00,
2013-05-10 09:30:00,57.0,-99.9,-100.00,NW,322,11.0,-999.0,-999,0.00,,,0.31,,2013-05-10 14:30:00,
2013-05-10 09:32:00,57.0,-99.9,-100.00,NNW,328,12.0,-999.0,-999,0.00,,,0.31,,2013-05-10 14:32:00,
2013-05-10 09:42:00,57.0,-99.9,-100.00,NNW,328,12.0,-999.0,-999,0.00,,,0.31,,2013-05-10 14:42:00,
2013-05-10 09:52:00,57.0,-99.9,-100.00,NNW,328,12.0,-999.0,-999,0.00,,,0.31,,2013-05-10 14:52:00,
2013-05-10 10:02:00,57.0,-99.9,-100.00,NW,322,11.0,-999.0,-999,0.00,,,0.31,,2013-05-10 15:02:00,
2013-05-10 10:21:00,-999.0,-99.9,-100.00,NW,322,11.0,-999.0,-999,0.00,,,0.31,,2013-05-10 15:21:00,
2013-05-10 11:02:00,58.0,-99.9,-100.00,NNW,335,9.0,-999.0,-999,0.00,,,0.31,,2013-05-10 16:02:00,
2013-05-10 11:12:00,58.0,-99.9,-100.00,NNW,335,9.0,-999.0,-999,0.00,,,0.31,,2013-05-10 16:12:00,
2013-05-10 11:23:00,58.0,-99.9,-100.00,NNW,335,9.0,-999.0,-999,0.00,,,0.31,,2013-05-10 16:23:00,
2013-05-10 11:33:00,58.0,-99.9,-100.00,NNW,334,11.0,-999.0,-999,0.00,,,0.31,,2013-05-10 16:33:00,
2013-05-10 11:43:00,58.0,-99.9,-100.00,NNW,334,11.0,-999.0,-999,0.00,,,0.31,,2013-05-10 16:43:00,
2013-05-10 11:53:00,58.0,-99.9,-100.00,NNW,334,11.0,-999.0,-999,0.00,,,0.31,,2013-05-10 16:53:00,
2013-05-10 12:02:00,57.0,-99.9,-100.00,NNW,333,14.0,-999.0,-999,0.00,,,0.31,,2013-05-10 17:02:00,
2013-05-10 12:12:00,57.0,-99.9,-100.00,NNW,333,14.0,-999.0,-999,0.00,,,0.31,,2013-05-10 17:12:00,
2013-05-10 12:22:00,57.0,-99.9,-100.00,NNW,333,14.0,-999.0,-999,0.00,,,0.31,,2013-05-10 17:22:00,
2013-05-10 12:32:00,57.0,-99.9,-100.00,NNW,342,12.0,-999.0,-999,0.00,,,0.31,,2013-05-10 17:32:00,
2013-05-10 12:42:00,57.0,-99.9,-100.00,NNW,342,12.0,-999.0,-999,0.00,,,0.31,,2013-05-10 17:42:00,
2013-05-10 12:52:00,57.0,-99.9,-100.00,NNW,342,12.0,-999.0,-999,0.00,,,0.31,,2013-05-10 17:52:00,
2013-05-10 13:00:00,56.0,-99.9,-100.00,NNW,338,9.0,-999.0,-999,0.00,,,0.31,,2013-05-10 18:00:00,
2013-05-10 13:11:00,-999.0,-99.9,-100.00,NNW,345,11.0,-999.0,-999,0.00,,,0.31,,2013-05-10 18:11:00,
2013-05-10 13:22:00,57.0,-99.9,-100.00,NNW,345,11.0,-999.0,-999,0.00,,,0.31,,2013-05-10 18:22:00,
2013-05-10 13:35:00,56.0,-99.9,-100.00,NNW,338,9.0,-999.0,-999,0.00,,,0.31,,2013-05-10 18:35:00,
2013-05-10 13:43:00,56.0,-99.9,-100.00,NNW,338,9.0,-999.0,-999,0.00,,,0.31,,2013-05-10 18:43:00,
2013-05-10 13:54:00,56.0,-99.9,-100.00,NNW,338,9.0,-999.0,-999,0.00,,,0.31,,2013-05-10 18:54:00,
2013-05-10 14:32:00,58.0,-99.9,-100.00,NNW,341,12.0,-999.0,-999,0.00,,,0.31,,2013-05-10 19:32:00,
2013-05-10 14:42:00,58.0,-99.9,-100.00,NNW,341,12.0,-999.0,-999,0.00,,,0.31,,2013-05-10 19:42:00,
2013-05-10 14:52:00,58.0,-99.9,-100.00,NNW,341,12.0,-999.0,-999,0.00,,,0.31,,2013-05-10 19:52:00,
2013-05-10 15:02:00,58.0,-99.9,-100.00,NW,323,10.0,-999.0,-999,0.00,,,0.31,,2013-05-10 20:02:00,
2013-05-10 15:12:00,58.0,-99.9,-100.00,NW,323,10.0,-999.0,-999,0.00,,,0.31,,2013-05-10 20:12:00,
2013-05-10 15:22:00,58.0,-99.9,-100.00,NW,323,10.0,-999.0,-999,0.00,,,0.31,,2013-05-10 20:22:00,
2013-05-10 15:32:00,57.0,-99.9,-100.00,NNW,334,11.0,-999.0,-999,0.00,,,0.31,,2013-05-10 20:32:00,
2013-05-10 15:42:00,57.0,-99.9,-100.00,NNW,334,11.0,-999.0,-999,0.00,,,0.31,,2013-05-10 20:42:00,
2013-05-10 15:52:00,57.0,-99.9,-100.00,NNW,334,11.0,-999.0,-999,0.00,,,0.31,,2013-05-10 20:52:00,
2013-05-10 16:02:00,57.0,-99.9,-100.00,NW,321,9.0,-999.0,-999,0.00,,,0.31,,2013-05-10 21:02:00,
2013-05-10 16:11:00,57.0,-99.9,-100.00,NW,321,9.0,-999.0,-999,0.00,,,0.31,,2013-05-10 21:11:00,
2013-05-10 16:25:00,57.0,-99.9,-100.00,NW,321,9.0,-999.0,-999,0.00,,,0.31,,2013-05-10 21:25:00,
2013-05-10 16:32:00,57.0,-99.9,-100.00,NW,325,9.0,-999.0,-999,0.00,,,0.31,,2013-05-10 21:32:00,
2013-05-10 16:43:00,57.0,-99.9,-100.00,NW,325,9.0,-999.0,-999,0.00,,,0.31,,2013-05-10 21:43:00,
2013-05-10 16:53:00,57.0,-99.9,-100.00,NW,325,9.0,-999.0,-999,0.00,,,0.31,,2013-05-10 21:53:00,
2013-05-10 17:03:00,57.0,-99.9,-100.00,NW,309,8.0,-999.0,-999,0.00,,,0.31,,2013-05-10 22:03:00,
2013-05-10 17:13:00,57.0,-99.9,-100.00,NW,309,8.0,-999.0,-999,0.00,,,0.31,,2013-05-10 22:13:00,
2013-05-10 17:22:00,57.0,-99.9,-100.00,NW,309,8.0,-999.0,-999,0.00,,,0.31,,2013-05-10 22:22:00,
2013-05-10 17:32:00,56.0,-99.9,-100.00,NW,322,7.0,-999.0,-999,0.00,,,0.31,,2013-05-10 22:32:00,
2013-05-10 17:42:00,56.0,-99.9,-100.00,NW,322,7.0,-999.0,-999,0.00,,,0.31,,2013-05-10 22:42:00,
2013-05-10 17:53:00,56.0,-99.9,-100.00,NW,322,7.0,-999.0,-999,0.00,,,0.31,,2013-05-10 22:53:00,
2013-05-10 18:02:00,56.0,-99.9,-100.00,NW,323,8.0,-999.0,-999,0.00,,,0.30,,2013-05-10 23:02:00,
2013-05-10 18:12:00,56.0,-99.9,-100.00,NW,323,8.0,-999.0,-999,0.00,,,0.30,,2013-05-10 23:12:00,
2013-05-10 18:22:00,56.0,-99.9,-100.00,NW,323,8.0,-999.0,-999,0.00,,,0.30,,2013-05-10 23:22:00,
2013-05-10 18:33:00,56.0,-99.9,-100.00,NW,315,6.0,-999.0,-999,0.00,,,0.05,,2013-05-10 23:33:00,
2013-05-10 18:42:00,56.0,-99.9,-100.00,NW,315,6.0,-999.0,-999,0.00,,,0.05,,2013-05-10 23:42:00,
2013-05-10 18:52:00,56.0,-99.9,-100.00,NW,315,6.0,-999.0,-999,0.00,,,0.05,,2013-05-10 23:52:00,
2013-05-10 19:02:00,56.0,-99.9,-100.00,NW,326,6.0,-999.0,-999,0.00,,,0.04,,2013-05-11 00:02:00,
2013-05-10 19:11:00,56.0,-99.9,-100.00,NW,326,6.0,-999.0,-999,0.00,,,0.04,,2013-05-11 00:11:00,
2013-05-10 19:22:00,56.0,-99.9,-100.00,NW,326,6.0,-999.0,-999,0.00,,,0.04,,2013-05-11 00:22:00,
2013-05-10 19:32:00,56.0,-99.9,-100.00,NW,323,4.0,-999.0,-999,0.00,,,0.00,,2013-05-11 00:32:00,
2013-05-10 19:42:00,56.0,-99.9,-100.00,NW,323,4.0,-999.0,-999,0.00,,,0.00,,2013-05-11 00:42:00,
2013-05-10 19:52:00,56.0,-99.9,-100.00,NW,323,4.0,-999.0,-999,0.00,,,0.00,,2013-05-11 00:52:00,
2013-05-10 20:01:00,56.0,-99.9,-100.00,NW,321,4.0,-999.0,-999,0.00,,,0.00,,2013-05-11 01:01:00,
2013-05-10 20:11:00,56.0,-99.9,-100.00,NW,321,4.0,-999.0,-999,0.00,,,0.00,,2013-05-11 01:11:00,
2013-05-10 20:22:00,56.0,-99.9,-100.00,NW,321,4.0,-999.0,-999,0.00,,,0.00,,2013-05-11 01:22:00,
2013-05-10 20:32:00,56.0,-99.9,-100.00,NW,321,4.0,-999.0,-999,0.00,,,0.00,,2013-05-11 01:32:00,
2013-05-10 20:42:00,56.0,-99.9,-100.00,NW,321,4.0,-999.0,-999,0.00,,,0.00,,2013-05-11 01:42:00,
2013-05-10 20:52:00,56.0,-99.9,-100.00,NW,321,4.0,-999.0,-999,0.00,,,0.00,,2013-05-11 01:52:00,
2013-05-10 21:02:00,56.0,-99.9,-100.00,NW,315,2.0,-999.0,-999,0.00,,,0.00,,2013-05-11 02:02:00,
2013-05-10 21:12:00,56.0,-99.9,-100.00,NW,315,2.0,-999.0,-999,0.00,,,0.00,,2013-05-11 02:12:00,
2013-05-10 21:22:00,56.0,-99.9,-100.00,NW,315,2.0,-999.0,-999,0.00,,,0.00,,2013-05-11 02:22:00,
2013-05-10 21:32:00,56.0,-99.9,-100.00,WNW,286,2.0,-999.0,-999,0.00,,,0.00,,2013-05-11 02:32:00,
2013-05-10 21:42:00,56.0,-99.9,-100.00,WNW,286,2.0,-999.0,-999,0.00,,,0.00,,2013-05-11 02:42:00,
2013-05-10 21:52:00,56.0,-99.9,-100.00,WNW,286,2.0,-999.0,-999,0.00,,,0.00,,2013-05-11 02:52:00,
2013-05-10 22:01:00,56.0,-99.9,-100.00,NW,310,2.0,-999.0,-999,0.00,,,0.00,,2013-05-11 03:01:00,
2013-05-10 22:11:00,56.0,-99.9,-100.00,NW,310,2.0,-999.0,-999,0.00,,,0.00,,2013-05-11 03:11:00,
2013-05-10 22:22:00,56.0,-99.9,-100.00,NW,310,2.0,-999.0,-999,0.00,,,0.00,,2013-05-11 03:22:00,
2013-05-10 22:33:00,55.0,-99.9,-100.00,WNW,290,1.0,-999.0,-999,0.00,,,0.00,,2013-05-11 03:33:00,
2013-05-10 22:43:00,55.0,-99.9,-100.00,WNW,290,1.0,-999.0,-999,0.00,,,0.00,,2013-05-11 03:43:00,
2013-05-10 22:53:00,55.0,-99.9,-100.00,WNW,290,1.0,-999.0,-999,0.00,,,0.00,,2013-05-11 03:53:00,
2013-05-10 23:03:00,54.0,-99.9,-100.00,West,266,2.0,-999.0,-999,0.00,,,0.00,,2013-05-11 04:03:00,
2013-05-10 23:12:00,54.0,-99.9,-100.00,West,266,2.0,-999.0,-999,0.00,,,0.00,,2013-05-11 04:12:00,
2013-05-10 23:23:00,54.0,-99.9,-100.00,West,266,2.0,-999.0,-999,0.00,,,0.00,,2013-05-11 04:23:00,
2013-05-10 23:33:00,53.0,-99.9,-100.00,West,262,2.0,-999.0,-999,0.00,,,0.00,,2013-05-11 04:33:00,
2013-05-10 23:43:00,53.0,-99.9,-100.00,West,262,2.0,-999.0,-999,0.00,,,0.00,,2013-05-11 04:43:00,
2013-05-10 23:52:00,53.0,-99.9,-100.00,West,262,2.0,-999.0,-999,0.00,,,0.00,,2013-05-11 04:52:00,